Wind_Speed
1 2 2 3 5 5 6 6 3 2 6 4 3 3 2 1 1 2 4 1 2 1 5 7 8 10 11 12 10 8 8 8 8 9 8 8 8 8 8 8 9 9 8 12 18 23 28 30 29 29 29 28 27 28 29 29 30 32 32 31 31 32 31 31 31 30 30 31 31 30 31 30 27 26 27 27 28 30 31 32 31 31 30 30 31 32
2 2 4 6 4 1 1 3 3 4 5 4 4 4 4 2 0 3 3 1 2 2 4 6 8 10 10 10 10 8 9 9 9 9 10 10 9 8 9 10 10 8 6 9 13 19 26 28 28 29 29 29 29 30 31 32 33 32 32 32 32 32 32 32 33 33 33 34 34 33 33 33 29 27 28 28 29 30 31 31 30 32 33 32 31 33
1 3 5 4 4 6 6 5 6 4 4 4 2 2 3 2 1 3 3 1 1 1 4 6 7 10 10 10 12 11 11 11 10 11 11 10 10 9 9 10 9 8 7 8 9 13 20 24 25 26 27 29 31 31 32 32 32 31 31 32 32 33 34 34 34 34 35 34 33 31 30 29 28 26 28 29 28 28 29 28 27 29 33 33 32 33
3 4 3 3 5 5 5 5 5 4 2 1 1 1 2 1 1 1 2 1 2 4 3 6 6 10 11 9 13 14 15 14 10 11 11 9 10 10 10 8 8 9 8 9 8 10 15 19 22 24 26 28 28 27 28 29 30 31 32 33 33 33 34 35 35 34 33 31 29 28 26 26 26 25 25 26 26 27 27 28 28 29 30 32 33 34
3 1 1 4 3 2 4 4 3 2 1 3 5 4 4 3 2 2 2 2 4 2 1 5 6 8 7 6 9 9 9 11 8 8 10 9 10 10 9 8 8 8 8 8 9 9 11 16 21 24 26 26 26 26 27 29 30 30 31 32 32 32 33 33 34 33 31 29 28 27 24 23 24 23 23 25 26 27 27 28 30 31 31 30 32 33
2 1 2 4 3 1 4 3 4 5 2 3 5 4 5 5 1 4 3 4 3 2 1 2 3 6 5 5 8 6 3 6 6 8 11 10 9 8 8 9 8 7 7 7 8 8 10 15 20 22 23 24 25 26 27 28 29 28 28 29 29 28 30 31 31 31 31 30 29 29 28 26 25 24 25 28 29 28 28 28 29 33 34 31 30 31
2 1 2 5 5 3 3 1 4 6 2 2 3 3 2 3 3 3 2 2 0 3 3 2 1 5 8 10 10 6 6 8 7 8 11 9 8 8 8 8 8 8 7 7 7 6 8 13 15 17 20 22 23 24 24 25 26 26 25 26 27 27 27 28 29 30 31 30 30 30 30 29 28 27 27 28 28 27 27 27 27 32 35 33 31 31
3 3 2 3 4 4 3 1 3 7 3 2 3 5 4 2 3 3 1 1 2 3 2 3 4 3 7 11 9 5 7 10 9 10 10 8 8 9 8 7 7 7 6 6 7 6 6 10 14 15 18 21 21 21 21 22 23 24 23 24 26 26 26 26 27 29 30 30 29 28 28 27 27 26 24 23 24 24 24 26 28 30 32 33 32 31
1 5 4 4 4 3 3 0 1 5 4 1 3 2 2 4 4 2 2 1 1 4 3 3 3 2 5 9 10 6 7 8 10 11 11 11 10 8 5 5 5 5 5 5 6 4 4 8 12 14 16 18 18 18 19 20 21 22 22 22 24 26 25 25 26 27 29 29 28 27 26 25 25 24 22 20 20 22 23 25 28 29 30 31 31 31
2 2 3 4 4 3 3 3 4 1 3 3 4 3 4 4 4 3 3 1 2 2 4 5 5 3 4 6 8 6 5 7 9 9 8 6 4 4 5 6 6 6 5 5 5 6 6 7 8 9 12 14 15 16 17 19 20 21 22 22 23 24 24 24 25 26 27 28 28 27 27 26 25 23 21 19 19 22 24 25 26 28 30 31 32 31
1 1 0 1 2 3 5 4 4 3 3 4 4 4 3 2 4 2 2 3 1 4 4 6 10 6 5 5 6 5 4 5 6 4 1 3 6 7 6 5 4 4 4 4 5 6 7 8 8 9 11 13 14 15 16 18 19 21 22 22 23 23 23 23 24 25 26 28 28 28 28 27 26 23 22 21 21 22 24 25 25 28 29 31 32 32
2 1 0 1 1 3 6 4 4 4 3 2 2 4 3 1 3 3 1 3 1 4 2 2 4 5 6 6 4 4 2 3 3 1 2 5 6 6 5 4 5 5 5 6 5 5 6 6 8 10 11 13 14 15 16 18 19 20 22 22 23 23 23 22 23 25 26 27 28 28 28 28 26 24 23 24 24 24 25 26 26 27 28 29 29 30
2 3 3 3 3 1 5 4 4 5 4 1 2 5 4 1 2 1 1 1 3 5 3 3 3 3 8 7 5 7 6 3 4 2 2 4 5 6 6 6 5 6 6 6 6 6 6 5 8 12 14 16 16 17 18 19 19 20 21 22 22 23 23 22 22 24 26 27 28 28 28 27 26 24 25 25 26 27 27 27 27 28 28 28 29 30
1 2 3 4 3 2 4 4 3 0 1 3 5 6 4 3 2 4 4 2 3 3 4 4 2 4 6 5 6 8 7 5 1 2 2 2 5 6 7 7 6 6 6 6 6 6 6 6 9 13 15 17 19 19 19 20 20 20 20 21 21 23 23 23 23 24 26 27 28 28 28 27 26 25 26 27 26 26 27 28 28 29 30 30 31 31
4 3 4 7 3 5 7 6 7 6 5 6 5 5 5 5 4 4 3 3 4 1 3 3 1 3 2 3 4 4 5 5 2 1 2 3 2 2 3 5 7 6 6 6 6 6 6 8 11 13 15 18 19 20 20 20 21 21 21 22 23 24 25 25 24 24 25 27 27 28 28 27 26 25 26 27 27 26 26 27 28 29 30 31 31 31
6 4 6 8 6 12 11 8 7 7 4 5 3 3 5 4 3 2 2 3 2 1 2 2 3 5 4 6 8 6 8 8 6 5 5 6 5 4 5 5 5 6 6 6 6 6 7 10 14 15 16 18 19 19 21 21 22 22 22 23 24 24 25 26 26 26 26 26 26 27 27 26 26 25 26 27 28 27 26 27 28 29 30 31 30 29
5 3 1 3 4 10 9 6 6 5 3 3 3 5 4 2 3 2 2 1 3 2 4 3 5 7 3 7 10 10 11 8 6 7 6 7 8 7 7 4 3 6 7 7 7 7 8 10 14 16 17 19 20 20 22 22 22 22 23 23 24 24 25 26 28 27 26 26 25 26 26 26 25 25 26 26 27 27 27 26 27 28 29 30 30 29
5 1 2 1 3 3 2 1 2 2 2 4 4 5 1 4 2 2 1 2 1 5 4 3 8 8 3 5 4 3 7 8 7 7 6 8 9 7 8 6 4 7 6 6 7 7 7 8 11 14 16 17 19 20 21 21 21 21 22 23 24 25 26 27 28 28 27 26 26 26 26 26 25 25 25 25 25 26 27 27 27 27 28 29 29 28
4 3 3 3 1 1 3 1 1 3 3 3 2 2 3 1 1 2 2 2 3 4 4 5 8 7 7 7 3 2 3 6 8 8 7 7 6 5 7 7 3 1 1 2 4 5 5 6 9 11 14 15 17 19 19 20 20 21 22 22 23 24 25 26 26 27 26 26 25 25 25 25 26 25 25 25 24 25 26 28 28 28 28 28 27 27
3 3 3 4 4 0 2 1 5 2 2 4 3 2 2 2 3 3 3 2 2 4 5 7 7 6 8 6 3 6 8 8 7 6 4 3 2 3 6 5 2 4 4 5 6 6 5 7 8 9 12 14 16 17 18 19 20 21 22 22 22 22 23 24 25 26 26 26 25 24 24 25 25 26 25 25 25 25 26 28 29 29 29 28 27 27
2 3 3 2 5 0 2 4 8 8 4 1 0 1 1 1 2 0 2 2 3 4 4 5 7 8 6 2 3 6 4 4 4 3 3 4 4 4 2 2 2 3 5 6 6 5 3 4 6 7 10 12 14 16 17 19 20 21 21 22 22 22 23 24 26 26 26 26 25 25 25 25 25 25 25 26 27 26 27 27 28 29 28 27 27 27
3 3 4 2 1 3 5 7 7 7 9 8 7 7 7 5 3 2 4 4 3 3 4 4 7 11 6 3 1 2 5 5 6 7 7 7 5 1 4 4 2 1 6 6 5 4 3 2 2 6 8 10 13 15 16 18 20 21 22 22 22 23 24 25 26 27 27 26 26 26 25 25 25 25 26 26 26 26 26 27 27 27 27 27 27 26
3 3 4 3 4 5 4 2 2 2 3 4 6 8 7 6 6 6 6 4 3 3 5 2 5 13 6 5 3 4 4 2 2 5 8 6 4 2 5 4 4 4 4 3 5 6 5 4 4 6 9 11 13 15 17 19 21 22 23 23 23 24 25 26 26 26 26 26 27 27 26 25 25 26 27 27 27 25 25 27 28 27 27 27 26 25
2 2 3 2 1 1 2 2 2 2 2 1 5 6 5 6 6 6 5 3 2 4 5 3 6 14 8 3 2 5 2 1 4 6 6 5 4 2 2 4 3 2 1 1 3 5 7 7 5 5 8 10 12 14 17 20 22 22 23 23 24 25 25 25 25 26 26 27 27 27 27 27 27 27 28 28 28 26 25 25 27 27 27 27 26 26
2 3 4 3 1 0 2 2 3 3 0 2 4 4 5 7 6 3 3 2 2 6 7 5 7 12 9 1 2 1 2 3 6 5 6 4 5 6 5 1 1 1 2 4 6 5 5 7 6 6 8 10 11 14 17 19 21 22 22 23 24 25 25 25 26 26 27 27 27 27 27 28 28 29 29 29 28 27 25 26 27 27 27 26 26 25
3 3 4 5 6 6 4 3 3 3 2 2 3 5 7 8 7 4 3 3 6 8 8 7 7 10 14 8 2 1 2 4 5 2 4 4 5 7 5 3 3 4 4 6 6 6 6 6 7 9 12 13 14 15 18 20 21 21 22 23 24 25 26 26 26 27 27 27 27 28 28 29 29 30 30 30 28 27 25 26 27 27 26 26 26 25
2 1 2 4 7 7 3 1 2 4 5 5 7 9 9 8 9 7 3 4 7 7 8 10 9 13 20 18 12 9 5 4 5 4 4 5 7 7 7 6 6 5 6 7 5 4 5 7 8 10 14 15 16 17 20 21 22 22 22 23 24 25 25 26 27 27 27 27 27 28 29 30 30 31 30 29 28 26 25 25 26 27 26 26 25 25
4 2 3 3 6 6 2 3 3 2 3 6 8 9 9 8 7 7 8 10 8 6 10 13 12 14 18 18 18 17 10 8 9 8 7 7 7 7 6 6 6 6 6 6 5 5 7 9 9 9 13 17 18 20 22 24 24 24 24 24 24 24 25 26 26 26 27 27 28 30 31 30 30 30 29 28 28 27 26 25 25 25 25 25 25 25
5 3 5 3 8 9 7 8 8 6 4 5 5 6 8 9 9 9 11 14 11 9 11 12 12 13 14 16 21 17 9 9 10 7 6 6 7 6 5 6 7 8 8 7 7 8 10 11 9 8 12 16 19 21 23 24 25 24 24 25 24 25 27 27 26 26 27 28 30 31 30 29 29 29 28 28 28 28 27 26 25 25 25 24 24 24
4 3 5 4 7 11 11 10 11 11 10 8 8 9 7 8 10 12 14 16 15 14 13 13 16 18 15 17 20 16 11 11 11 9 8 9 9 8 9 9 9 7 8 9 10 11 11 11 10 9 11 14 17 20 21 22 24 25 26 26 25 27 29 29 28 27 28 29 32 31 29 28 27 27 27 28 28 28 28 26 25 25 24 24 23 23
2 4 5 5 3 9 12 12 11 11 11 12 11 10 9 10 12 13 14 13 12 12 14 15 18 19 16 14 15 17 15 11 10 12 12 10 10 9 9 9 8 8 10 12 12 12 11 11 10 10 10 13 17 20 22 24 25 26 27 27 27 29 30 30 29 29 29 31 31 29 28 27 27 26 27 27 27 27 27 26 25 25 24 24 23 22
3 2 3 5 4 7 9 10 11 10 9 10 11 11 12 13 15 15 13 10 10 12 14 16 15 14 14 10 10 15 15 11 11 14 13 11 10 8 8 9 9 9 12 13 13 12 11 10 10 10 11 16 20 20 22 25 26 26 27 29 29 29 29 30 31 30 31 31 30 28 28 28 27 27 27 27 27 26 26 25 25 24 24 24 23 22
5 4 3 5 4 6 8 7 7 6 5 6 11 15 17 17 15 14 11 12 15 14 12 12 12 12 13 11 11 15 16 13 13 14 12 12 11 7 8 10 11 11 11 11 12 12 12 10 10 12 15 19 22 22 23 25 26 27 28 29 29 28 28 30 31 30 30 30 29 28 28 27 27 27 27 28 27 26 26 25 25 25 24 23 22 22
5 5 3 4 3 6 7 4 3 5 7 7 9 12 15 16 15 15 15 17 19 15 11 11 12 12 13 14 16 17 16 13 12 13 13 11 8 7 9 11 11 11 11 10 10 11 12 11 12 15 19 22 23 23 22 22 24 26 27 27 26 26 28 30 30 29 29 29 28 27 27 27 27 27 27 27 27 27 26 26 25 24 23 23 22 21
5 5 4 3 2 4 4 3 3 7 7 7 7 9 13 15 17 18 19 20 19 17 15 15 15 16 17 18 17 16 15 12 11 14 16 12 8 8 11 12 13 13 13 13 12 11 12 13 14 17 19 21 22 20 17 18 21 22 22 23 24 25 27 27 27 27 27 27 26 26 26 26 26 27 27 27 27 27 27 26 25 24 23 22 22 21
5 5 3 2 3 2 2 4 6 4 2 3 7 7 10 12 13 13 15 17 18 18 16 16 17 19 18 18 17 15 13 11 9 12 16 14 10 10 11 13 14 12 13 13 12 12 14 16 17 17 17 18 18 16 14 15 17 18 18 19 20 22 23 24 24 25 26 26 26 26 26 26 26 26 26 27 27 27 27 26 25 24 23 22 21 20
6 4 2 2 4 4 4 7 5 5 6 7 9 8 7 7 9 9 10 13 15 15 14 14 16 18 18 17 17 14 8 6 8 12 13 11 10 10 12 14 13 11 12 15 16 17 20 20 19 17 16 16 15 14 13 13 13 14 15 16 18 20 21 22 24 25 26 26 25 25 25 26 26 26 26 27 27 27 27 27 25 24 23 22 21 20
9 7 5 4 4 4 5 7 6 6 9 10 12 12 8 7 9 9 8 10 10 9 11 13 14 17 17 16 16 11 5 4 9 12 11 6 7 10 12 12 10 9 9 11 14 17 19 19 17 16 14 13 13 13 12 11 12 13 15 16 17 19 20 21 23 24 24 24 23 24 24 25 26 26 26 27 28 28 28 27 26 24 23 22 22 20
12 9 7 5 5 5 6 7 7 8 8 8 10 11 9 8 8 5 4 7 5 4 4 5 8 10 10 10 11 8 5 6 9 11 9 4 3 7 9 8 8 10 12 12 12 13 16 16 17 17 16 15 14 13 12 12 12 13 15 16 16 17 19 21 22 22 21 21 21 22 23 24 24 25 26 27 28 28 28 26 25 24 22 21 20 19
10 8 7 7 7 8 9 8 6 5 6 7 9 8 4 4 7 5 4 4 1 4 6 6 5 5 5 7 7 4 4 6 7 9 9 8 6 7 8 8 8 9 13 16 16 15 15 15 15 16 16 16 16 14 12 12 12 13 14 15 15 17 19 19 19 18 18 18 19 20 22 23 24 25 26 27 27 27 26 25 24 23 22 20 19 18
5 5 7 9 10 11 12 10 6 6 6 8 12 8 1 3 3 5 5 2 1 3 4 3 4 5 6 6 6 3 4 6 7 10 11 9 8 8 9 11 11 11 14 18 19 17 16 16 14 14 14 13 12 11 11 11 11 13 13 13 15 17 18 16 16 15 16 18 19 20 21 22 23 25 25 26 26 26 25 24 24 23 22 21 20 19
3 2 4 8 9 9 9 9 8 7 3 2 8 7 2 1 3 4 3 3 4 5 5 2 3 5 6 6 5 4 6 8 9 11 12 10 8 8 10 12 14 15 17 18 18 17 16 16 15 14 13 12 10 9 10 10 11 12 12 13 15 15 14 14 15 16 17 18 19 20 20 21 22 24 24 25 26 25 24 23 23 23 22 22 21 21
3 2 2 4 5 4 6 7 7 5 1 4 6 3 1 2 3 1 2 4 4 6 6 3 0 3 5 6 7 7 8 9 10 11 12 11 10 8 9 10 11 13 16 18 19 19 16 15 15 13 12 11 10 9 8 9 11 12 12 13 13 12 12 13 15 17 18 19 19 20 20 21 22 23 24 24 25 25 24 23 22 22 22 23 23 22
3 4 3 3 3 3 4 5 4 4 2 2 2 0 2 2 5 4 2 5 4 6 6 4 2 1 2 3 7 9 10 11 11 11 12 13 13 11 10 11 11 13 15 17 18 18 16 15 14 12 10 10 10 9 8 10 11 11 11 11 11 11 13 14 16 17 17 18 19 19 20 21 22 22 23 24 24 24 24 24 24 23 23 23 24 23
5 5 4 3 3 3 4 5 4 4 3 3 1 4 5 3 3 6 4 2 3 4 5 6 6 4 2 2 5 7 8 10 12 11 11 12 12 12 11 12 13 15 17 18 17 16 15 15 14 12 11 10 9 9 9 10 12 12 11 10 11 13 15 16 17 18 18 19 20 20 21 21 21 22 22 23 23 24 25 25 24 23 23 23 23 22
2 2 2 1 2 4 4 3 2 1 1 3 3 4 5 3 0 4 4 3 4 5 4 5 7 7 4 3 4 6 8 9 11 12 11 11 12 12 11 11 13 15 16 18 17 15 13 14 13 12 11 10 10 9 9 10 12 12 12 12 13 14 15 17 18 19 20 21 21 21 22 22 22 21 22 22 22 23 24 25 25 24 23 22 22 21
2 3 3 1 1 3 4 2 0 1 3 5 6 5 3 3 3 3 4 4 5 5 6 6 7 8 6 4 4 6 9 9 10 11 11 10 11 12 11 11 13 15 15 16 16 15 13 13 13 14 13 12 11 9 9 10 11 12 12 13 14 15 16 18 20 21 22 22 23 23 23 23 23 22 21 21 21 22 22 23 23 23 23 22 21 20
2 3 2 1 3 4 4 5 5 5 6 5 5 4 2 2 4 4 5 5 5 5 6 6 6 6 7 6 6 6 8 9 9 9 10 10 10 11 11 11 13 16 17 17 16 14 14 14 14 15 15 14 12 10 11 12 12 13 14 15 16 18 19 20 22 23 23 23 23 23 23 23 24 23 22 21 21 21 21 21 21 21 20 21 22 22
2 2 1 3 3 3 5 7 7 8 7 5 4 4 3 4 6 6 6 6 5 6 7 7 7 6 7 8 8 6 8 10 9 8 9 11 11 11 11 13 16 18 19 18 16 15 15 16 16 17 17 16 13 12 13 13 14 15 16 17 20 22 23 23 23 23 23 23 23 23 23 23 23 23 22 22 21 20 19 19 20 19 18 18 19 20
2 3 4 4 4 5 6 6 5 5 4 4 6 8 8 6 5 6 7 6 6 7 7 8 9 8 7 9 8 6 7 10 9 8 8 10 11 12 14 16 18 20 21 18 16 15 16 18 18 18 17 16 14 13 14 14 15 16 17 20 23 25 26 27 26 24 24 23 23 24 25 24 23 23 24 23 22 21 19 17 17 17 17 17 15 15
4 5 5 4 5 7 7 6 4 4 5 8 9 10 9 7 6 6 7 7 7 8 9 9 9 9 9 10 11 8 7 9 10 9 8 10 14 16 19 20 19 19 21 19 15 15 17 18 19 18 18 17 15 15 16 16 17 18 20 23 25 27 29 29 27 24 23 22 23 24 25 25 25 25 25 25 25 25 23 21 17 15 15 15 14 13
Wind_Direction
69 135 190 214 207 201 210 213 217 26 34 23 12 1 307 351 16 81 92 3 1 356 243 240 251 256 259 263 262 259 255 245 243 244 242 237 230 227 229 233 231 228 227 212 205 201 197 200 203 202 202 200 199 202 202 203 204 205 204 205 207 207 205 203 202 204 205 205 206 207 209 210 213 215 216 220 226 229 229 228 226 225 224 222 221 222
53 182 209 211 207 117 169 191 98 51 30 21 11 2 346 335 70 70 76 250 36 39 266 269 275 267 264 272 274 266 261 255 244 245 246 240 239 234 228 233 234 234 232 212 204 195 190 192 195 195 195 195 196 200 203 204 206 206 204 204 207 206 203 204 204 204 206 207 207 207 209 210 212 214 213 216 220 225 228 229 229 230 230 228 226 225
114 229 225 192 135 76 56 52 58 39 23 35 36 10 331 291 167 63 52 360 76 117 274 306 305 282 272 271 272 266 258 251 235 232 237 234 237 238 231 232 231 230 226 209 200 186 181 183 186 188 192 196 200 202 203 205 205 204 203 204 206 205 203 204 205 206 208 209 209 209 210 210 212 215 215 218 221 224 227 226 225 228 229 227 225 224
157 229 238 97 93 91 70 59 61 48 37 75 159 180 272 263 80 32 350 317 220 211 282 328 312 283 274 260 256 252 247 250 242 235 239 231 231 236 235 233 221 216 215 205 199 185 177 177 180 187 193 197 201 202 202 204 204 203 203 204 205 205 205 204 206 208 209 209 208 210 212 210 211 213 215 219 225 229 231 230 224 220 220 219 218 218
145 187 302 66 79 125 103 95 112 120 194 212 203 203 229 239 113 108 38 320 248 226 349 336 313 281 267 247 255 255 239 246 246 237 244 237 232 239 246 247 233 219 211 201 200 189 176 179 186 193 197 198 199 202 204 205 205 205 205 204 205 205 205 205 206 207 207 206 204 204 205 206 208 212 214 216 221 226 230 233 229 220 215 213 213 215
143 327 311 104 110 143 127 145 171 169 202 226 213 207 232 271 40 91 40 3 341 326 307 7 338 289 296 292 281 299 291 258 243 226 237 241 235 238 245 246 242 238 225 209 205 190 175 184 192 195 198 198 200 205 208 208 207 207 207 206 205 206 206 206 206 206 206 204 202 200 199 200 202 206 211 214 216 220 224 230 229 222 216 213 213 214
132 307 348 109 121 109 118 221 189 168 172 253 266 332 328 325 46 82 16 11 22 285 243 123 83 282 304 296 272 278 288 274 257 238 238 238 230 227 231 228 224 229 225 218 219 204 178 181 187 191 196 200 204 209 210 209 208 207 207 207 206 206 206 206 207 206 206 205 204 204 205 205 205 207 212 216 217 218 223 228 227 222 218 215 214 215
122 137 63 88 112 113 135 238 175 161 148 231 269 331 349 50 94 116 68 223 227 315 288 160 148 246 287 285 272 250 263 270 261 253 250 243 234 228 222 207 195 196 190 190 205 210 183 173 177 186 196 203 209 211 209 207 207 206 206 207 206 207 207 207 208 207 207 206 205 206 209 211 212 213 215 219 222 222 224 227 226 223 220 219 218 218
72 150 155 140 140 141 152 310 201 162 144 227 243 330 31 80 89 101 87 274 311 12 310 200 151 228 257 277 290 273 246 257 254 251 254 249 236 222 198 152 129 122 120 129 152 162 140 152 169 182 194 203 208 208 206 205 205 204 204 205 205 205 206 207 208 208 207 208 209 208 210 212 215 218 219 224 230 226 223 225 225 223 221 220 219 219
11 173 170 144 155 162 123 37 353 102 137 203 192 96 75 88 70 67 93 36 13 338 255 200 170 237 257 252 275 281 244 238 247 250 254 253 218 147 112 102 100 95 87 87 107 113 107 125 147 161 177 189 197 202 203 202 202 202 202 202 202 203 205 206 207 208 207 208 210 211 211 213 215 217 219 224 228 222 218 220 221 222 222 221 220 220
99 134 228 120 126 135 115 74 23 41 102 154 155 104 91 102 65 51 103 84 36 277 255 199 185 206 275 251 230 249 228 207 236 257 230 80 82 89 90 98 118 122 122 122 117 115 117 132 148 151 158 171 183 191 195 197 199 200 200 201 201 202 205 206 207 209 209 209 211 212 214 215 215 216 216 218 219 214 212 214 218 221 223 222 222 223
143 96 139 55 27 127 114 77 33 31 56 92 137 120 108 22 39 25 15 74 200 255 281 270 199 199 250 255 238 280 315 148 181 223 118 116 112 114 125 147 158 154 155 153 145 144 141 148 162 164 164 169 178 185 189 195 197 198 199 200 200 201 204 207 207 209 211 212 212 213 215 216 216 217 216 216 216 213 212 213 216 219 221 221 222 224
185 203 157 83 330 201 126 89 40 16 6 12 148 117 105 331 9 346 241 160 225 242 264 332 358 246 244 247 256 287 298 245 200 170 119 129 137 146 165 184 183 174 171 164 157 165 173 180 182 178 175 175 181 187 190 193 195 197 198 199 200 200 202 207 209 210 212 214 215 215 216 217 217 217 215 216 218 217 217 216 215 216 217 218 221 222
216 256 141 106 343 251 171 142 120 77 236 195 169 136 139 171 202 239 227 216 235 246 282 316 345 264 268 271 239 241 259 266 190 141 171 170 164 167 175 185 187 186 181 168 163 172 185 194 193 188 184 182 185 190 191 193 194 195 196 198 201 202 203 207 211 212 213 216 219 220 220 220 221 219 216 216 218 219 218 217 217 218 218 220 221 222
196 278 182 169 173 181 195 190 164 157 177 199 186 159 174 172 188 216 190 209 233 248 305 309 284 210 222 285 255 247 295 308 313 247 275 287 219 174 199 201 191 189 182 170 174 186 195 193 190 189 190 190 191 191 191 192 193 195 196 198 201 203 204 207 211 213 214 217 220 222 224 224 224 222 218 218 220 220 219 218 220 221 220 221 223 224
198 247 182 171 164 165 184 201 168 135 156 222 202 181 217 200 181 198 161 186 172 14 295 240 246 224 205 280 277 279 301 302 305 318 331 322 314 308 279 245 194 188 187 184 195 208 207 195 190 190 192 193 194 193 192 192 193 196 198 200 202 204 205 206 210 213 216 218 220 222 224 225 224 223 221 221 221 222 222 220 221 223 223 224 227 228
177 256 129 123 150 166 182 201 171 138 166 206 179 203 217 136 124 176 275 27 105 266 263 189 252 277 302 290 265 243 252 261 291 316 320 307 301 291 288 294 173 187 197 199 205 216 217 203 197 197 195 194 193 194 195 196 198 200 200 201 202 204 205 207 210 213 216 217 218 220 221 222 222 222 222 223 223 223 224 222 222 225 227 229 230 231
155 208 318 72 154 197 276 273 121 56 102 143 176 207 131 42 38 143 226 347 133 246 262 183 247 278 295 277 278 243 235 229 247 269 263 270 280 282 293 299 213 195 201 208 215 227 230 217 209 205 203 203 202 201 201 202 203 204 204 203 202 203 205 207 210 214 216 216 217 219 219 221 222 222 223 225 227 226 225 224 223 224 226 229 231 231
153 189 294 353 23 307 353 63 129 5 44 116 190 218 93 103 244 140 183 238 206 237 273 251 252 265 246 247 311 359 224 206 224 230 221 234 246 258 275 278 258 185 239 272 269 268 240 215 211 205 203 208 210 210 209 207 205 204 205 205 205 206 208 209 211 214 217 218 218 220 222 224 224 223 224 226 228 228 228 228 226 226 226 227 230 231
151 184 239 327 333 360 40 151 193 214 15 27 356 360 73 147 179 167 196 210 191 216 256 270 269 258 241 234 232 233 220 207 215 210 177 161 171 233 249 261 340 22 354 324 304 280 237 212 211 208 209 210 209 210 211 208 206 204 204 204 205 208 210 211 212 213 217 219 220 222 223 224 224 224 224 224 226 228 229 230 229 229 229 229 230 230
132 193 201 314 333 61 164 215 196 183 170 128 322 208 185 128 106 231 247 199 185 205 231 259 269 260 241 201 217 223 204 181 154 94 57 21 343 303 230 164 58 18 316 292 276 263 236 203 201 207 216 215 210 209 208 208 207 205 205 205 205 206 208 211 212 213 217 219 220 221 221 222 223 223 223 223 225 226 227 228 228 229 229 229 230 230
159 187 169 138 294 212 215 221 200 188 185 185 191 195 196 185 154 207 250 221 183 210 223 221 266 270 244 142 132 72 81 100 94 50 358 332 314 292 131 136 136 270 279 282 289 305 1 55 183 204 212 209 208 208 205 206 207 206 207 207 207 208 210 212 213 213 216 218 220 222 223 223 222 222 224 224 224 224 225 226 226 226 226 227 228 230
138 147 164 167 193 208 222 214 169 161 177 201 217 206 197 191 181 193 217 215 184 224 241 209 267 272 248 113 51 12 45 62 49 347 316 294 263 170 142 171 192 217 258 310 332 325 328 313 254 222 218 212 209 211 209 208 208 209 210 208 209 211 212 214 214 214 216 218 221 223 224 224 223 222 224 225 226 225 224 225 225 225 226 227 229 230
99 122 180 191 165 52 25 26 33 46 71 262 245 219 199 199 199 198 200 191 172 204 223 207 247 266 266 99 343 297 308 323 300 289 272 267 283 288 217 202 183 166 205 300 292 290 292 288 273 241 234 230 223 220 218 215 213 213 213 211 212 214 215 214 214 215 216 218 221 223 224 225 224 224 225 227 228 227 224 224 225 225 227 228 229 231
170 177 177 170 174 348 7 360 349 343 305 240 244 223 220 217 201 185 175 178 230 210 202 203 232 261 272 167 105 16 144 219 257 234 202 219 265 273 270 262 142 171 214 231 234 237 259 270 263 244 238 242 242 238 232 227 221 219 218 215 215 217 217 216 215 214 215 217 220 222 223 225 225 225 226 227 229 228 225 225 225 226 227 229 230 231
180 206 180 177 200 211 215 218 214 213 203 225 239 218 222 219 198 181 148 169 227 224 216 225 236 262 272 268 274 5 161 212 251 214 183 221 244 256 270 265 238 234 247 251 228 202 211 234 238 231 226 228 236 240 239 236 230 226 224 222 220 219 218 216 215 215 215 217 220 221 223 224 226 227 226 226 227 228 226 225 225 226 227 228 230 231
109 279 223 207 224 216 200 219 176 147 158 195 217 214 217 218 200 192 189 198 220 232 237 239 239 258 269 273 277 274 249 245 283 296 286 269 256 253 248 235 231 226 237 249 235 211 223 229 226 225 224 224 228 233 237 237 234 231 228 227 226 224 221 218 216 215 216 218 221 223 224 224 226 228 227 226 227 228 227 226 225 225 226 226 228 227
105 270 262 260 268 257 250 300 332 60 173 213 222 218 220 226 207 195 215 224 220 228 244 241 236 248 264 274 275 271 269 274 278 277 272 269 267 258 237 229 242 248 258 268 265 260 257 248 239 231 227 226 227 228 231 234 235 233 231 232 229 227 226 222 217 216 217 219 222 225 226 226 227 229 230 229 229 228 226 225 224 224 224 225 225 225
120 231 242 234 265 272 280 285 288 288 255 231 240 237 225 223 215 210 227 233 226 228 245 252 252 254 262 271 271 272 279 281 280 280 276 283 290 279 260 257 263 272 289 293 278 266 264 261 255 243 234 231 229 228 228 228 230 230 231 233 230 228 229 225 220 219 218 220 224 227 228 228 229 231 231 230 229 227 224 223 223 223 223 225 225 226
121 216 226 212 249 265 268 267 269 271 266 253 248 249 247 239 227 221 228 234 235 241 254 265 268 264 258 260 271 282 288 283 289 297 291 287 286 276 267 267 273 284 290 284 274 267 267 268 267 261 253 242 232 229 228 227 227 227 229 230 229 229 230 225 222 222 221 223 227 228 227 228 228 228 228 228 226 224 222 221 221 220 221 224 224 224
158 200 195 170 223 262 259 253 252 254 257 259 256 250 249 255 253 245 239 237 239 247 252 255 261 264 259 258 273 282 282 285 293 289 284 281 274 267 264 264 271 282 280 276 273 268 265 270 273 272 267 258 248 237 229 229 230 228 229 229 229 230 228 224 222 224 225 227 229 227 224 225 224 223 224 224 222 221 219 218 218 217 218 219 220 221
181 190 158 148 192 250 246 240 244 243 242 254 258 246 233 233 242 246 243 236 233 236 241 244 249 257 262 265 270 274 278 284 282 279 280 278 272 265 266 265 263 264 266 270 274 274 272 270 270 270 267 266 264 252 237 233 230 226 227 231 233 232 226 223 224 225 227 230 229 225 222 222 221 219 220 220 219 217 216 215 213 212 212 213 215 217
176 169 146 160 197 249 237 214 225 239 229 233 239 233 227 224 231 242 246 240 234 230 232 239 243 253 267 275 269 269 273 272 270 272 272 273 275 264 254 259 258 254 255 263 272 277 276 270 265 266 266 266 267 263 254 244 233 229 234 238 237 232 225 223 225 226 228 229 227 223 222 220 218 218 217 217 217 215 213 210 208 207 208 210 213 215
178 172 176 171 185 255 245 179 160 236 233 232 232 223 222 223 224 231 237 235 233 232 233 243 252 257 263 264 260 260 265 265 267 270 265 263 269 263 254 257 260 263 267 269 270 273 277 278 276 274 273 273 273 273 267 253 241 239 242 241 235 229 224 223 225 226 227 228 225 222 221 218 217 216 215 215 214 212 209 208 206 205 206 207 209 211
175 183 201 182 180 263 260 160 198 235 225 231 241 223 217 222 221 225 235 237 237 238 239 243 252 253 252 255 258 261 266 268 269 273 273 271 264 262 265 265 266 273 280 280 274 272 275 278 282 283 283 284 286 285 273 254 245 242 238 233 229 225 224 224 225 225 226 225 223 220 218 216 215 213 211 210 209 207 206 205 203 202 204 206 207 210
179 191 200 194 191 245 264 211 225 255 288 275 267 241 219 220 221 226 241 246 241 240 240 241 245 250 254 258 262 263 268 276 276 268 269 271 267 263 265 267 270 274 276 276 276 274 276 278 282 288 292 294 296 292 277 258 248 239 232 229 227 226 226 225 223 223 223 221 219 218 215 214 211 209 206 204 203 202 202 201 200 200 201 203 204 207
191 189 184 218 203 197 238 243 250 298 300 276 262 242 212 205 208 210 232 248 243 237 238 241 244 250 255 258 261 266 277 296 288 270 264 265 264 262 261 262 266 265 264 269 274 276 281 286 291 296 298 296 293 288 277 263 250 240 233 229 227 225 224 221 220 220 219 217 216 215 214 212 209 205 202 200 199 198 198 198 197 198 199 199 198 200
196 196 183 205 207 194 232 249 252 261 257 250 251 248 233 215 207 196 213 245 249 240 238 239 240 246 251 255 262 274 298 296 274 271 272 260 235 245 256 263 272 280 285 293 300 302 304 306 306 305 302 296 289 282 274 263 251 242 234 230 227 223 219 217 218 219 217 216 215 213 211 210 207 203 199 198 198 197 196 195 194 195 196 197 196 197
200 201 191 208 226 212 222 238 240 242 243 243 253 259 250 223 196 171 217 249 262 307 310 283 261 259 266 273 274 272 267 263 262 272 294 320 258 260 277 300 323 334 336 336 336 327 318 313 308 302 299 296 291 284 273 261 249 238 233 230 225 220 218 218 219 219 217 215 213 210 208 205 204 202 199 198 198 196 194 192 191 191 192 193 193 192
203 204 200 215 229 226 231 240 241 244 251 251 256 267 267 197 165 164 245 259 331 11 7 9 337 320 338 336 326 301 243 248 268 289 317 350 352 324 324 337 344 340 332 326 322 316 309 306 303 298 296 295 291 284 272 259 244 232 229 226 219 218 220 223 222 219 216 212 206 203 202 201 201 201 199 197 195 192 190 188 186 184 184 185 186 185
203 204 205 215 223 225 230 238 248 251 243 248 257 261 312 67 153 199 235 265 318 312 335 5 345 345 1 359 355 336 265 273 293 304 320 346 355 338 326 324 321 316 313 313 311 309 308 306 301 295 292 289 285 274 263 252 239 232 227 219 215 219 222 222 217 210 205 202 198 196 197 198 199 198 196 194 190 186 184 184 183 181 179 178 178 177
190 203 212 217 222 227 228 232 248 256 234 263 275 263 143 92 255 233 233 253 265 292 310 311 327 356 2 347 332 293 280 295 306 311 319 329 334 323 312 314 318 314 312 312 309 307 307 303 298 292 287 283 278 267 258 246 236 230 222 215 217 221 219 210 203 198 194 191 191 190 191 192 194 192 189 187 184 179 176 177 179 177 175 173 172 170
195 212 223 203 205 223 232 229 235 247 308 4 335 327 89 166 206 211 319 284 278 303 306 288 360 41 20 344 321 307 306 310 312 314 315 315 316 312 302 304 306 304 307 310 307 307 307 301 295 290 284 280 277 268 255 241 231 223 216 216 218 212 203 196 191 189 187 184 183 183 183 184 185 184 181 179 178 174 169 169 171 171 171 170 167 165
203 211 227 214 194 196 225 236 222 207 242 319 21 124 250 210 137 113 344 319 321 314 309 320 356 66 57 339 309 308 316 314 312 315 314 312 315 315 310 309 306 302 303 302 299 300 300 295 292 287 278 275 273 266 253 235 225 217 211 211 206 192 186 185 183 180 178 175 174 173 174 175 176 175 175 174 173 169 164 163 165 166 167 168 165 161
206 201 212 227 231 215 219 238 224 188 216 265 206 199 245 278 105 125 159 233 278 293 312 327 319 315 354 329 297 298 305 304 305 308 306 305 307 306 306 306 305 302 301 298 296 294 290 288 287 279 270 270 267 259 248 231 219 212 204 195 190 185 181 177 175 172 168 165 164 164 164 165 166 168 169 169 169 166 161 160 161 160 162 164 161 158
217 141 145 193 288 298 273 246 210 138 318 315 293 236 238 270 9 128 151 202 243 260 278 292 295 302 316 319 304 297 291 291 297 300 299 299 298 299 302 302 301 301 298 293 292 288 279 276 276 268 258 256 253 247 237 223 214 209 198 186 183 184 180 174 169 164 159 157 157 157 158 156 156 158 161 164 166 165 161 161 160 157 158 161 160 159
319 54 83 156 259 289 287 290 351 301 303 315 310 298 282 253 219 177 179 225 245 259 270 271 283 296 298 282 261 266 276 286 292 293 297 298 295 297 302 302 303 302 295 289 287 285 277 267 261 255 246 240 240 236 222 209 204 201 193 184 182 180 177 171 163 155 152 152 151 152 154 151 148 150 153 156 159 158 158 161 160 157 158 160 160 159
291 35 49 223 212 220 259 289 301 293 290 282 266 265 280 280 257 231 224 237 246 260 272 272 274 286 294 291 273 258 267 280 282 285 293 295 293 297 300 298 300 302 297 290 283 276 268 259 251 248 243 236 233 227 213 200 194 192 188 183 180 175 169 164 157 152 150 149 147 147 149 147 145 145 147 150 153 153 154 158 159 158 161 166 167 165
307 19 299 254 261 269 281 292 299 302 304 299 278 269 275 283 282 275 273 277 276 270 273 277 271 263 271 285 286 274 271 276 274 275 285 291 294 296 296 296 298 297 294 289 280 269 262 257 252 247 241 236 230 221 210 199 192 192 188 180 175 170 164 158 154 151 148 147 146 146 145 145 145 144 143 143 145 147 150 156 159 159 162 170 177 177
264 251 238 250 270 272 269 268 271 275 278 291 305 303 296 289 286 283 287 295 295 289 291 295 293 284 278 280 281 272 270 279 282 279 279 286 292 294 295 297 297 295 293 289 278 266 258 253 251 247 240 234 228 216 207 199 193 191 186 178 173 171 165 159 153 151 150 149 148 148 147 145 144 143 142 141 139 137 138 145 156 160 159 162 172 181
224 222 225 229 241 256 264 265 271 282 280 283 290 291 290 296 300 294 292 291 289 288 291 294 298 303 304 299 294 284 272 277 287 289 284 285 287 289 291 293 293 292 292 287 271 258 255 250 245 241 234 227 220 211 205 200 193 188 183 178 175 173 168 161 154 152 152 153 152 152 150 147 146 145 144 143 142 138 134 131 136 146 153 156 159 165
Height
799 809 815 814 810 806 803 801 802 802 803 808 810 812 813 813 816 816 820 819 813 818 819 814 813 809 803 798 793 791 789 789 790 788 787 786 785 784 784 784 782 782 780 778 780 781 782 784 786 789 791 794 796 797 799 800 802 803 805 807 808 811 814 815 817 819 820 822 823 825 826 827 829 831 832 833 834 835 837 839 841 842 843 845 847 848
803 815 814 806 802 800 799 798 800 804 805 808 813 816 816 815 817 818 821 820 816 821 819 811 812 808 801 797 791 789 789 788 787 786 785 783 781 781 780 780 779 778 777 776 777 777 779 781 783 785 787 789 791 793 795 796 797 799 801 803 805 807 810 811 813 814 815 817 818 820 821 823 826 828 829 830 831 832 833 836 838 840 841 842 844 845
813 816 807 798 797 798 800 800 802 806 808 813 816 821 824 818 816 820 822 820 818 823 821 814 816 811 801 797 791 788 787 783 780 779 779 778 778 778 776 776 776 776 776 775 775 776 777 779 781 783 785 786 787 788 790 792 794 796 798 799 801 803 805 807 809 810 811 813 816 818 820 822 824 826 827 828 829 830 831 833 836 837 838 839 840 842
819 812 801 796 797 799 803 804 805 810 813 816 818 824 827 819 819 826 826 822 819 820 820 819 822 814 801 797 790 784 780 776 775 774 773 773 773 772 772 771 772 773 773 773 774 774 776 778 780 781 782 784 785 787 788 790 792 793 794 796 797 799 801 803 805 807 809 812 815 817 819 821 822 824 825 827 828 828 829 831 833 835 835 836 837 839
812 807 799 798 799 800 806 809 810 815 819 818 817 821 823 817 819 825 824 821 817 818 820 823 826 811 794 793 787 778 776 774 773 773 770 769 768 768 768 768 768 769 770 771 772 772 774 776 777 778 779 781 783 785 786 788 789 790 792 794 795 797 799 801 803 805 808 810 813 815 817 819 820 821 822 823 824 824 826 827 829 832 833 834 835 836
807 806 801 802 804 802 808 813 813 816 821 819 816 816 816 815 818 821 822 824 826 828 825 826 832 814 790 791 789 779 777 776 772 771 770 767 766 767 767 767 767 767 768 769 769 770 771 773 774 776 778 779 781 782 784 785 787 789 791 793 795 796 798 799 801 803 805 807 809 810 812 814 815 816 817 817 819 820 822 823 825 829 831 832 833 834
806 807 803 804 807 807 812 815 811 813 821 823 820 818 815 814 819 823 824 828 834 834 825 824 837 831 806 792 788 783 780 777 773 769 767 766 765 765 765 765 766 766 766 767 768 768 769 771 773 775 776 778 779 781 783 785 786 788 790 792 794 795 797 798 800 801 803 804 806 807 808 810 811 812 813 814 817 818 820 822 823 826 828 829 831 832
806 809 807 806 809 813 817 817 811 809 820 826 823 822 819 817 822 824 826 831 832 830 826 824 831 840 826 796 780 783 784 778 774 769 765 764 763 761 761 761 762 764 765 766 767 767 769 770 771 774 775 777 778 780 782 783 785 787 789 790 792 794 795 797 798 799 801 802 804 805 807 809 809 810 812 813 815 817 819 820 821 823 825 827 828 830
805 809 809 808 813 816 817 817 811 808 819 825 822 821 819 820 823 823 828 832 830 833 838 830 828 840 834 801 779 780 783 781 775 768 764 760 758 758 759 760 761 763 764 765 767 768 768 770 771 772 774 776 777 779 780 782 784 786 788 789 791 792 793 795 796 797 798 800 802 804 805 807 808 810 811 812 813 815 816 818 819 820 822 824 825 827
809 812 808 807 813 815 818 820 815 810 817 822 821 820 820 821 823 826 831 833 835 842 842 832 830 836 827 801 785 782 781 779 772 765 762 758 756 758 760 762 763 764 766 766 767 768 769 769 771 772 773 775 776 778 779 780 782 784 786 787 789 790 792 793 794 795 796 798 799 801 803 804 806 808 810 811 812 812 814 815 816 817 819 820 822 823
811 812 810 808 811 813 818 822 820 816 817 819 821 822 824 825 826 830 831 833 842 844 834 826 824 829 826 801 783 779 774 769 766 763 762 759 758 760 762 764 765 766 767 768 768 769 770 770 770 771 772 774 775 777 778 779 780 782 783 785 787 788 790 791 792 793 794 795 796 798 799 800 802 805 807 808 809 810 811 812 813 814 816 817 818 820
812 813 812 810 810 811 815 821 821 820 819 821 821 822 830 833 833 837 838 841 849 841 829 825 821 827 829 802 775 771 766 762 762 763 763 762 760 761 764 765 766 767 768 767 768 769 770 770 770 771 772 773 774 775 776 778 779 780 781 783 785 786 788 789 790 792 793 793 794 795 795 797 799 801 803 804 805 806 807 809 810 811 813 814 815 817
815 813 811 812 813 810 813 822 826 825 823 823 822 825 837 843 844 848 847 847 848 838 829 828 827 825 815 791 773 769 764 760 759 759 762 762 762 762 764 765 765 767 767 766 767 768 770 771 770 770 770 771 772 773 774 776 777 778 780 781 783 785 786 787 788 790 791 791 792 792 793 794 795 797 799 800 801 802 803 805 806 807 809 810 811 813
819 814 812 816 817 811 810 820 829 829 826 825 823 828 839 846 852 853 848 843 839 834 831 829 830 823 804 783 773 768 762 759 757 758 760 760 761 762 762 763 764 765 766 765 766 767 767 769 768 768 768 769 769 770 772 773 775 776 778 780 781 783 785 786 786 787 788 789 790 791 792 792 793 794 795 796 797 798 799 800 802 803 804 806 807 809
822 819 813 812 811 810 809 810 815 818 823 822 815 820 829 832 838 841 840 837 833 832 836 836 830 815 798 782 770 764 762 759 758 758 758 757 758 759 758 760 762 763 764 764 764 764 764 765 766 766 767 767 767 768 769 771 772 774 775 777 778 780 782 783 784 784 785 787 788 789 790 791 791 792 792 793 794 794 795 796 798 799 800 802 803 805
814 811 801 800 800 802 806 802 800 810 824 821 811 818 825 818 818 827 832 830 831 837 838 835 824 802 786 776 766 765 763 758 759 758 757 757 756 757 758 760 762 763 763 763 762 763 763 763 764 764 764 765 766 767 767 768 769 771 772 774 775 776 778 780 781 781 782 783 785 786 787 789 790 791 791 791 792 792 793 793 794 796 797 799 800 803
809 810 801 801 801 800 803 799 796 804 816 818 817 821 817 808 810 823 833 831 834 841 830 820 814 795 786 777 762 762 763 760 762 760 758 759 757 756 757 758 761 761 761 761 761 761 761 761 762 762 763 763 764 764 765 766 766 767 769 771 772 774 776 777 778 778 779 780 782 783 784 786 787 788 789 790 790 791 791 791 792 794 796 797 798 800
796 809 808 806 807 805 803 801 799 800 805 814 821 816 807 810 813 819 832 835 838 842 824 810 807 798 798 789 764 759 765 764 764 762 760 760 757 757 757 757 759 759 759 759 759 760 760 760 761 761 762 762 763 763 763 764 765 765 767 768 769 771 772 774 775 776 777 778 779 781 782 784 785 786 787 788 790 791 791 791 791 792 794 795 797 798
784 803 813 812 812 809 804 805 807 807 805 809 813 808 809 822 825 822 831 835 839 843 827 810 806 801 797 787 769 766 768 765 763 761 761 760 758 759 758 756 757 757 758 758 757 758 758 759 759 759 760 761 761 763 763 763 764 764 765 766 767 768 770 772 773 774 775 776 777 779 780 782 782 783 785 787 788 790 790 790 790 791 792 793 795 796
782 797 812 816 814 811 809 810 812 813 811 809 809 808 810 817 821 821 822 823 830 839 831 818 813 800 782 771 769 768 763 761 762 761 760 760 759 759 757 755 756 758 758 757 757 757 757 758 758 757 759 759 760 761 762 763 763 763 764 765 765 767 768 770 772 773 773 774 775 776 777 779 780 780 781 783 785 786 787 788 789 789 790 791 793 794
785 793 806 819 819 815 814 809 805 807 811 814 815 815 814 815 818 820 817 813 819 830 830 826 819 794 767 759 761 761 758 758 760 760 760 760 757 757 757 757 758 758 758 758 758 758 758 757 757 757 759 759 760 761 761 762 763 762 763 763 764 765 767 768 769 770 771 772 773 773 774 776 777 779 779 779 780 782 783 785 786 787 788 789 790 792
787 792 803 819 822 816 809 799 794 797 799 805 809 809 810 813 817 825 825 814 811 818 818 821 819 788 757 752 755 755 758 758 758 760 760 759 758 757 758 758 759 759 758 758 756 756 757 757 758 759 759 759 760 760 760 761 762 762 761 761 762 763 764 765 767 768 769 770 771 772 772 773 775 777 778 778 777 778 780 781 783 784 786 787 788 790
779 787 798 810 811 807 802 795 795 796 793 797 800 798 801 806 810 821 826 815 811 814 808 814 819 784 749 749 755 754 758 758 758 760 760 760 759 758 759 758 759 759 758 756 755 754 756 757 758 759 759 759 759 759 760 759 759 759 759 759 760 760 761 763 765 766 767 768 769 769 770 771 772 774 775 776 775 775 777 779 780 782 783 784 786 787
777 787 796 801 801 800 800 797 796 796 796 800 798 795 798 802 803 808 812 809 811 814 809 817 822 785 748 750 756 754 757 758 757 758 759 760 759 758 759 758 757 758 756 756 756 756 757 758 758 759 760 760 759 759 759 758 758 758 757 757 757 757 759 761 763 764 764 764 765 767 768 769 769 770 771 773 774 773 774 776 777 779 781 782 784 785
781 788 793 801 807 809 810 808 806 803 803 803 799 796 796 796 798 802 803 807 812 810 807 815 818 787 754 752 757 756 757 758 757 758 758 758 757 757 758 756 755 755 755 757 758 757 757 758 758 758 758 759 759 759 759 758 757 756 756 755 755 756 757 759 760 761 761 761 762 763 765 766 767 767 767 769 771 772 772 773 775 776 778 780 781 783
783 789 790 799 808 810 810 810 806 804 804 804 799 796 795 794 799 802 804 812 814 806 802 806 805 784 759 753 759 760 759 759 758 757 758 757 757 757 756 755 755 754 754 755 756 756 757 757 757 755 754 754 755 756 757 757 756 755 754 754 753 754 755 756 758 758 759 759 759 760 761 762 763 764 765 766 768 769 770 770 772 774 775 777 779 781
787 791 789 792 795 793 795 794 790 792 799 801 798 796 796 795 795 799 805 810 807 804 802 797 794 785 768 759 761 761 761 762 760 758 758 757 756 755 754 753 753 753 753 753 752 753 754 755 754 751 749 748 748 750 752 753 754 753 752 752 752 753 753 754 755 756 756 757 757 757 758 758 760 761 763 764 765 767 768 768 769 771 773 775 776 778
791 795 791 792 791 788 789 789 787 791 796 797 796 797 798 796 796 800 804 800 797 803 802 789 784 786 776 764 760 759 760 762 760 758 758 756 754 753 752 751 752 752 751 750 749 749 750 750 749 747 746 744 744 744 745 747 748 749 749 749 750 752 752 752 753 753 753 754 754 754 755 756 758 759 761 763 764 765 766 766 767 769 771 772 774 775
791 797 793 793 795 790 790 792 791 793 795 794 795 796 796 797 799 801 800 794 792 798 794 783 782 785 777 766 756 753 757 758 755 755 755 754 754 752 751 751 750 749 749 748 747 747 745 744 744 743 743 742 742 741 740 741 743 745 746 746 747 749 749 751 751 750 750 751 751 751 752 754 756 757 759 761 762 763 763 764 765 766 768 770 772 774
791 799 796 796 799 795 793 794 793 794 796 796 796 796 795 796 796 796 795 790 789 791 788 784 784 779 771 763 754 750 754 754 752 753 753 752 752 752 751 750 748 748 747 746 745 743 741 740 739 740 740 739 740 739 739 739 739 740 741 741 742 744 745 747 748 746 746 746 746 747 750 752 753 755 757 758 760 761 761 761 762 764 766 768 770 772
791 797 797 799 805 801 795 795 795 796 797 797 797 797 796 796 795 793 791 789 790 792 788 786 786 775 761 758 757 752 750 752 753 752 750 750 749 749 749 748 747 746 744 743 741 739 738 737 736 736 736 735 735 735 735 735 735 736 737 737 737 737 740 743 743 742 742 742 742 744 747 749 750 752 753 755 757 759 759 759 760 762 764 766 768 770
793 795 794 800 807 801 791 792 795 794 797 800 799 797 796 795 791 788 786 787 787 788 786 786 786 772 756 756 759 754 749 753 754 750 748 747 745 747 747 746 745 743 740 738 737 735 735 735 734 733 732 731 731 731 731 731 731 731 732 732 732 733 736 739 738 737 738 738 740 741 743 745 747 748 750 753 755 756 757 758 758 760 762 764 766 768
793 794 794 798 803 795 786 788 791 793 799 800 792 785 784 785 785 783 783 781 776 777 781 781 775 764 756 757 759 754 751 753 752 747 745 743 742 744 744 741 740 738 736 735 734 733 732 731 730 730 728 727 727 726 726 726 726 727 727 727 729 730 733 735 734 734 734 736 737 738 739 742 744 744 747 750 752 754 755 756 756 757 759 762 764 766
792 792 792 794 797 792 785 787 792 796 795 785 770 768 772 775 778 780 777 771 766 766 768 767 762 759 757 755 753 751 748 748 747 742 739 738 740 741 740 737 735 733 733 733 732 731 729 727 726 726 725 724 723 722 722 722 722 723 723 724 726 728 729 730 730 730 731 733 735 736 737 739 740 741 744 747 749 751 752 753 754 755 757 760 762 764
793 794 793 792 794 791 785 789 796 791 779 767 758 759 763 764 766 769 765 761 760 760 761 761 759 755 752 748 745 744 744 744 744 739 733 734 737 738 737 734 731 730 730 730 729 728 727 725 724 723 722 722 721 720 720 720 720 720 721 722 723 724 725 726 726 727 729 731 733 734 735 736 737 739 741 744 747 748 749 751 752 753 755 757 759 762
790 794 793 791 793 792 788 790 788 775 764 762 759 756 757 758 760 765 766 760 755 755 756 757 754 749 746 744 741 740 741 742 742 737 731 731 733 734 734 730 728 729 728 726 725 725 724 723 722 721 721 720 719 719 719 719 719 719 719 720 721 722 722 723 724 725 727 729 730 731 732 733 735 737 739 741 744 745 747 748 749 751 753 755 758 760
787 790 793 792 788 787 787 784 777 772 768 765 758 751 751 754 756 760 764 757 748 748 750 750 749 746 743 741 738 738 740 742 741 734 727 729 732 732 730 726 724 726 725 722 722 722 721 721 720 720 720 719 718 718 718 718 718 718 718 719 719 720 720 721 721 722 724 725 726 727 729 731 732 735 737 739 741 743 744 746 747 749 751 753 756 758
782 785 789 791 785 783 787 784 779 780 775 761 751 744 743 747 747 749 757 754 744 743 745 745 745 743 740 739 738 738 741 745 743 732 724 727 730 727 725 723 723 724 724 723 722 721 721 721 720 719 719 718 717 717 716 717 717 717 717 718 718 718 719 719 719 720 721 722 723 725 727 729 730 733 735 737 738 741 742 744 745 747 749 751 754 756
778 780 784 789 786 783 787 785 779 775 764 751 744 740 740 743 740 746 761 759 746 744 747 746 745 744 742 742 740 739 742 747 742 730 724 728 730 727 725 725 725 726 725 725 724 723 722 721 720 719 718 717 716 716 715 715 715 715 716 716 717 718 717 717 718 718 719 720 721 723 724 726 728 730 732 735 736 739 740 742 744 746 748 751 753 755
779 780 783 787 785 781 781 778 771 765 755 746 742 739 739 738 738 752 767 763 751 753 755 750 749 749 748 748 746 744 745 746 741 733 731 734 735 732 729 728 728 727 726 724 724 723 722 721 720 718 717 716 715 714 714 714 713 713 713 714 715 716 716 716 717 718 719 719 720 722 723 725 727 728 730 732 734 737 739 741 743 745 747 750 752 755
778 779 778 778 778 777 778 776 768 759 749 742 740 739 740 740 744 757 764 759 756 759 756 752 751 751 750 750 750 750 747 746 743 739 736 736 735 734 732 729 728 727 725 724 723 721 721 720 719 718 717 715 714 713 713 713 712 712 713 713 713 713 713 715 716 717 718 719 719 721 722 724 726 727 729 731 733 735 738 739 741 744 746 749 752 754
774 776 776 773 772 771 770 771 768 758 747 742 741 739 740 745 752 758 759 758 759 758 755 754 753 750 750 750 750 750 748 745 743 740 736 735 735 735 733 729 726 725 724 723 721 720 720 719 718 718 716 715 714 713 713 713 712 712 712 712 712 712 713 714 715 716 716 718 719 720 722 724 725 727 728 730 732 734 736 738 741 743 745 748 751 753
763 769 770 766 765 767 768 768 768 760 750 747 745 742 743 750 757 761 761 760 758 757 756 755 753 751 751 750 748 748 746 744 742 739 736 734 734 733 732 730 727 725 723 721 720 719 719 718 717 716 715 714 714 713 712 712 712 711 712 712 712 713 714 714 715 716 716 717 718 720 722 723 725 727 729 730 732 733 735 738 740 743 745 747 750 752
755 759 762 756 754 761 765 761 756 753 751 751 750 748 749 753 758 762 763 759 758 758 756 754 753 752 752 751 749 748 746 743 741 739 736 733 731 730 730 728 727 725 723 722 721 719 718 718 716 715 714 713 713 712 711 711 711 711 711 712 712 713 713 714 715 717 717 718 719 721 722 724 725 727 729 730 732 733 735 738 740 742 745 747 749 751
750 750 754 752 749 752 753 749 747 750 754 754 753 751 751 752 755 759 761 758 757 757 755 752 752 751 751 751 751 749 747 744 741 739 737 735 732 729 728 727 726 725 723 721 720 720 719 717 716 715 714 712 712 712 711 710 710 710 710 711 712 713 713 714 715 716 717 719 720 722 723 725 726 728 729 731 732 734 735 738 740 742 745 747 748 750
747 749 753 753 752 751 748 745 746 750 753 752 751 752 751 751 752 754 755 755 755 754 754 753 751 749 750 751 750 749 747 744 741 739 738 735 732 729 727 726 725 724 722 720 719 719 718 717 716 714 713 712 711 710 709 708 709 709 709 710 711 712 713 714 715 716 717 718 720 721 723 724 726 728 730 732 733 735 736 738 739 742 744 746 748 750
749 754 756 756 758 757 753 748 747 750 752 750 750 750 749 750 752 752 753 752 751 751 751 751 750 749 749 749 749 749 746 743 741 739 736 734 732 729 726 725 722 721 720 719 717 716 716 715 715 713 712 711 709 708 708 707 707 707 708 709 710 711 713 714 715 716 717 718 719 721 722 724 726 728 730 732 734 736 737 739 740 742 744 746 748 750
751 757 760 759 759 758 755 750 747 749 751 749 749 749 748 749 750 751 751 750 750 750 750 749 749 748 746 745 746 746 744 741 740 738 735 732 730 727 725 724 721 719 718 716 715 715 714 713 713 711 710 709 708 707 706 705 705 706 706 707 708 710 712 714 715 716 717 718 720 721 722 724 726 727 730 732 734 736 738 739 741 743 744 746 747 749
755 761 762 760 760 759 756 752 749 749 749 746 747 748 748 748 749 748 748 748 748 748 748 747 747 746 744 743 742 742 741 739 737 736 735 731 728 725 723 720 718 716 715 713 713 712 711 710 710 709 708 707 707 707 706 704 704 704 704 705 706 707 710 713 714 715 717 718 719 721 722 724 726 728 730 732 734 736 738 740 741 743 745 746 748 748
758 761 759 760 764 762 756 751 749 751 751 749 747 747 747 747 747 746 746 746 746 746 746 745 744 743 742 740 739 739 738 735 733 734 733 729 726 724 720 718 716 714 712 711 711 710 709 708 707 706 705 706 706 706 706 705 704 704 704 704 704 705 707 709 711 714 716 717 718 720 721 723 726 728 730 732 734 736 738 741 743 744 745 746 748 749
755 756 755 757 760 756 750 748 750 752 753 750 747 746 745 745 745 745 744 745 744 744 743 742 742 740 739 737 736 736 735 733 731 731 730 727 725 722 719 717 714 712 710 709 709 707 706 705 704 703 702 702 703 704 704 704 704 703 703 703 704 704 705 706 708 711 714 716 718 719 721 722 724 727 730 732 734 736 737 740 743 745 746 747 748 749